﻿測定場所 (Monitoring sites),日付 (Measurement date),時間 (Measurement time),線量率 最大値 (max) μGy/h,線量率 最小値 (min) μGy/h,線量率 平均値 (average) μGy/h,
江戸川 (Edogawa),2014-01-26,23:01～24:00,0.0830,0.0727,0.0773,
江戸川 (Edogawa),2014-01-26,22:01～23:00,0.0824,0.0722,0.0774,
江戸川 (Edogawa),2014-01-26,21:01～22:00,0.0835,0.0729,0.0774,
江戸川 (Edogawa),2014-01-26,20:01～21:00,0.0834,0.0737,0.0787,
江戸川 (Edogawa),2014-01-26,19:01～20:00,0.0841,0.0740,0.0788,
江戸川 (Edogawa),2014-01-26,18:01～19:00,0.0854,0.0741,0.0793,
江戸川 (Edogawa),2014-01-26,17:01～18:00,0.0845,0.0751,0.0799,
江戸川 (Edogawa),2014-01-26,16:01～17:00,0.0848,0.0737,0.0797,
江戸川 (Edogawa),2014-01-26,15:01～16:00,0.0852,0.0728,0.0794,
江戸川 (Edogawa),2014-01-26,14:01～15:00,0.0857,0.0742,0.0791,
江戸川 (Edogawa),2014-01-26,13:01～14:00,0.0846,0.0733,0.0788,
江戸川 (Edogawa),2014-01-26,12:01～13:00,0.0843,0.0714,0.0790,
江戸川 (Edogawa),2014-01-26,11:01～12:00,0.0880,0.0738,0.0800,
江戸川 (Edogawa),2014-01-26,10:01～11:00,0.0853,0.0753,0.0799,
江戸川 (Edogawa),2014-01-26,09:01～10:00,0.0857,0.0746,0.0801,
江戸川 (Edogawa),2014-01-26,08:01～09:00,0.0844,0.0732,0.0782,
江戸川 (Edogawa),2014-01-26,07:01～08:00,0.0859,0.0727,0.0768,
江戸川 (Edogawa),2014-01-26,06:01～07:00,0.0825,0.0733,0.0772,
江戸川 (Edogawa),2014-01-26,05:01～06:00,0.0828,0.0734,0.0775,
江戸川 (Edogawa),2014-01-26,04:01～05:00,0.0840,0.0725,0.0782,
江戸川 (Edogawa),2014-01-26,03:01～04:00,0.0871,0.0739,0.0794,
江戸川 (Edogawa),2014-01-26,02:01～03:00,0.0848,0.0732,0.0786,
江戸川 (Edogawa),2014-01-26,01:01～02:00,0.0843,0.0724,0.0777,
江戸川 (Edogawa),2014-01-26,00:01～01:00,0.0827,0.0733,0.0784,
江戸川 (Edogawa),2014-01-25,23:01～24:00,0.0848,0.0730,0.0792,
江戸川 (Edogawa),2014-01-25,22:01～23:00,0.0854,0.0754,0.0799,
江戸川 (Edogawa),2014-01-25,21:01～22:00,0.0878,0.0734,0.0794,
江戸川 (Edogawa),2014-01-25,20:01～21:00,0.0860,0.0744,0.0800,
江戸川 (Edogawa),2014-01-25,19:01～20:00,0.0878,0.0738,0.0797,
江戸川 (Edogawa),2014-01-25,18:01～19:00,0.0840,0.0741,0.0791,
江戸川 (Edogawa),2014-01-25,17:01～18:00,0.0846,0.0752,0.0793,
江戸川 (Edogawa),2014-01-25,16:01～17:00,0.0832,0.0743,0.0791,
江戸川 (Edogawa),2014-01-25,15:01～16:00,0.0836,0.0737,0.0795,
江戸川 (Edogawa),2014-01-25,14:01～15:00,0.0871,0.0741,0.0804,
江戸川 (Edogawa),2014-01-25,13:01～14:00,0.0891,0.0760,0.0808,
江戸川 (Edogawa),2014-01-25,12:01～13:00,0.0855,0.0742,0.0803,
江戸川 (Edogawa),2014-01-25,11:01～12:00,0.0862,0.0754,0.0804,
江戸川 (Edogawa),2014-01-25,10:01～11:00,0.0840,0.0739,0.0798,
江戸川 (Edogawa),2014-01-25,09:01～10:00,0.0859,0.0743,0.0796,
江戸川 (Edogawa),2014-01-25,08:01～09:00,0.0849,0.0741,0.0786,
江戸川 (Edogawa),2014-01-25,07:01～08:00,0.0843,0.0734,0.0786,
江戸川 (Edogawa),2014-01-25,06:01～07:00,0.0857,0.0740,0.0790,
江戸川 (Edogawa),2014-01-25,05:01～06:00,0.0858,0.0715,0.0787,
江戸川 (Edogawa),2014-01-25,04:01～05:00,0.0866,0.0726,0.0788,
江戸川 (Edogawa),2014-01-25,03:01～04:00,0.0836,0.0735,0.0788,
江戸川 (Edogawa),2014-01-25,02:01～03:00,0.0833,0.0737,0.0789,
江戸川 (Edogawa),2014-01-25,01:01～02:00,0.0853,0.0741,0.0792,
江戸川 (Edogawa),2014-01-25,00:01～01:00,0.0850,0.0735,0.0790,
江戸川 (Edogawa),2014-01-24,23:01～24:00,0.0866,0.0731,0.0784,
江戸川 (Edogawa),2014-01-24,22:01～23:00,0.0852,0.0727,0.0785,
江戸川 (Edogawa),2014-01-24,21:01～22:00,0.0839,0.0735,0.0784,
江戸川 (Edogawa),2014-01-24,20:01～21:00,0.0840,0.0742,0.0785,
江戸川 (Edogawa),2014-01-24,19:01～20:00,0.0834,0.0722,0.0780,
江戸川 (Edogawa),2014-01-24,18:01～19:00,0.0842,0.0730,0.0786,
江戸川 (Edogawa),2014-01-24,17:01～18:00,0.0830,0.0725,0.0785,
江戸川 (Edogawa),2014-01-24,16:01～17:00,0.0847,0.0724,0.0785,
江戸川 (Edogawa),2014-01-24,15:01～16:00,0.0868,0.0736,0.0791,
江戸川 (Edogawa),2014-01-24,14:01～15:00,0.0854,0.0748,0.0789,
江戸川 (Edogawa),2014-01-24,13:01～14:00,0.0833,0.0746,0.0793,
江戸川 (Edogawa),2014-01-24,12:01～13:00,0.0860,0.0752,0.0798,
江戸川 (Edogawa),2014-01-24,11:01～12:00,0.0852,0.0741,0.0797,
江戸川 (Edogawa),2014-01-24,10:01～11:00,0.0836,0.0737,0.0793,
江戸川 (Edogawa),2014-01-24,09:01～10:00,0.0833,0.0741,0.0786,
江戸川 (Edogawa),2014-01-24,08:01～09:00,0.0843,0.0734,0.0785,
江戸川 (Edogawa),2014-01-24,07:01～08:00,0.0851,0.0734,0.0780,
江戸川 (Edogawa),2014-01-24,06:01～07:00,0.0845,0.0735,0.0783,
江戸川 (Edogawa),2014-01-24,05:01～06:00,0.0831,0.0729,0.0779,
江戸川 (Edogawa),2014-01-24,04:01～05:00,0.0835,0.0734,0.0780,
江戸川 (Edogawa),2014-01-24,03:01～04:00,0.0822,0.0731,0.0782,
江戸川 (Edogawa),2014-01-24,02:01～03:00,0.0840,0.0723,0.0780,
江戸川 (Edogawa),2014-01-24,01:01～02:00,0.0825,0.0734,0.0774,
江戸川 (Edogawa),2014-01-24,00:01～01:00,0.0828,0.0725,0.0771,
江戸川 (Edogawa),2014-01-23,23:01～24:00,0.0833,0.0716,0.0782,
江戸川 (Edogawa),2014-01-23,22:01～23:00,0.0827,0.0730,0.0772,
江戸川 (Edogawa),2014-01-23,21:01～22:00,0.0862,0.0719,0.0771,
江戸川 (Edogawa),2014-01-23,20:01～21:00,0.0835,0.0721,0.0779,
江戸川 (Edogawa),2014-01-23,19:01～20:00,0.0842,0.0732,0.0776,
江戸川 (Edogawa),2014-01-23,18:01～19:00,0.0829,0.0721,0.0782,
江戸川 (Edogawa),2014-01-23,17:01～18:00,0.0839,0.0740,0.0784,
江戸川 (Edogawa),2014-01-23,16:01～17:00,0.0834,0.0730,0.0786,
江戸川 (Edogawa),2014-01-23,15:01～16:00,0.0881,0.0738,0.0792,
江戸川 (Edogawa),2014-01-23,14:01～15:00,0.0845,0.0733,0.0786,
江戸川 (Edogawa),2014-01-23,13:01～14:00,0.0853,0.0755,0.0800,
江戸川 (Edogawa),2014-01-23,12:01～13:00,0.0845,0.0736,0.0795,
江戸川 (Edogawa),2014-01-23,11:01～12:00,0.0852,0.0739,0.0785,
江戸川 (Edogawa),2014-01-23,10:01～11:00,0.0821,0.0729,0.0784,
江戸川 (Edogawa),2014-01-23,09:01～10:00,0.0827,0.0728,0.0777,
江戸川 (Edogawa),2014-01-23,08:01～09:00,0.0862,0.0721,0.0776,
江戸川 (Edogawa),2014-01-23,07:01～08:00,0.0838,0.0722,0.0773,
江戸川 (Edogawa),2014-01-23,06:01～07:00,0.0837,0.0726,0.0770,
江戸川 (Edogawa),2014-01-23,05:01～06:00,0.0851,0.0715,0.0770,
江戸川 (Edogawa),2014-01-23,04:01～05:00,0.0830,0.0717,0.0771,
江戸川 (Edogawa),2014-01-23,03:01～04:00,0.0826,0.0716,0.0768,
江戸川 (Edogawa),2014-01-23,02:01～03:00,0.0844,0.0724,0.0768,
江戸川 (Edogawa),2014-01-23,01:01～02:00,0.0809,0.0720,0.0768,
江戸川 (Edogawa),2014-01-23,00:01～01:00,0.0823,0.0731,0.0767,
江戸川 (Edogawa),2014-01-22,23:01～24:00,0.0812,0.0733,0.0766,
江戸川 (Edogawa),2014-01-22,22:01～23:00,0.0843,0.0727,0.0771,
江戸川 (Edogawa),2014-01-22,21:01～22:00,0.0838,0.0734,0.0785,
江戸川 (Edogawa),2014-01-22,20:01～21:00,0.0846,0.0723,0.0779,
江戸川 (Edogawa),2014-01-22,19:01～20:00,0.0834,0.0723,0.0781,
江戸川 (Edogawa),2014-01-22,18:01～19:00,0.0855,0.0725,0.0780,
江戸川 (Edogawa),2014-01-22,17:01～18:00,0.0836,0.0736,0.0779,
江戸川 (Edogawa),2014-01-22,16:01～17:00,0.0834,0.0725,0.0779,
江戸川 (Edogawa),2014-01-22,15:01～16:00,0.0830,0.0747,0.0789,
江戸川 (Edogawa),2014-01-22,14:01～15:00,0.0843,0.0740,0.0795,
江戸川 (Edogawa),2014-01-22,13:01～14:00,0.0845,0.0738,0.0794,
江戸川 (Edogawa),2014-01-22,12:01～13:00,0.0847,0.0742,0.0785,
江戸川 (Edogawa),2014-01-22,11:01～12:00,0.0834,0.0727,0.0785,
江戸川 (Edogawa),2014-01-22,10:01～11:00,0.0846,0.0733,0.0779,
江戸川 (Edogawa),2014-01-22,09:01～10:00,0.0827,0.0726,0.0771,
江戸川 (Edogawa),2014-01-22,08:01～09:00,0.0847,0.0720,0.0768,
江戸川 (Edogawa),2014-01-22,07:01～08:00,0.0819,0.0723,0.0765,
江戸川 (Edogawa),2014-01-22,06:01～07:00,0.0808,0.0712,0.0763,
江戸川 (Edogawa),2014-01-22,05:01～06:00,0.0814,0.0728,0.0767,
江戸川 (Edogawa),2014-01-22,04:01～05:00,0.0860,0.0728,0.0785,
江戸川 (Edogawa),2014-01-22,03:01～04:00,0.0917,0.0777,0.0837,
江戸川 (Edogawa),2014-01-22,02:01～03:00,0.106,0.0843,0.0949,
江戸川 (Edogawa),2014-01-22,01:01～02:00,0.100,0.0820,0.0902,
江戸川 (Edogawa),2014-01-22,00:01～01:00,0.0891,0.0792,0.0844,
江戸川 (Edogawa),2014-01-21,23:01～24:00,0.0889,0.0780,0.0827,
江戸川 (Edogawa),2014-01-21,22:01～23:00,0.0860,0.0740,0.0809,
江戸川 (Edogawa),2014-01-21,21:01～22:00,0.0845,0.0740,0.0793,
江戸川 (Edogawa),2014-01-21,20:01～21:00,0.0888,0.0733,0.0793,
江戸川 (Edogawa),2014-01-21,19:01～20:00,0.0835,0.0735,0.0791,
江戸川 (Edogawa),2014-01-21,18:01～19:00,0.0861,0.0746,0.0800,
江戸川 (Edogawa),2014-01-21,17:01～18:00,0.0871,0.0730,0.0799,
江戸川 (Edogawa),2014-01-21,16:01～17:00,0.0877,0.0747,0.0797,
江戸川 (Edogawa),2014-01-21,15:01～16:00,0.0835,0.0739,0.0792,
江戸川 (Edogawa),2014-01-21,14:01～15:00,0.0869,0.0745,0.0808,
江戸川 (Edogawa),2014-01-21,13:01～14:00,0.0859,0.0764,0.0809,
江戸川 (Edogawa),2014-01-21,12:01～13:00,0.0883,0.0720,0.0807,
江戸川 (Edogawa),2014-01-21,11:01～12:00,0.0871,0.0750,0.0808,
江戸川 (Edogawa),2014-01-21,10:01～11:00,0.0858,0.0744,0.0803,
江戸川 (Edogawa),2014-01-21,09:01～10:00,0.0848,0.0743,0.0792,
江戸川 (Edogawa),2014-01-21,08:01～09:00,0.0854,0.0734,0.0793,
江戸川 (Edogawa),2014-01-21,07:01～08:00,0.0839,0.0727,0.0790,
江戸川 (Edogawa),2014-01-21,06:01～07:00,0.0843,0.0745,0.0792,
江戸川 (Edogawa),2014-01-21,05:01～06:00,0.0851,0.0749,0.0792,
江戸川 (Edogawa),2014-01-21,04:01～05:00,0.0833,0.0750,0.0790,
江戸川 (Edogawa),2014-01-21,03:01～04:00,0.0825,0.0743,0.0788,
江戸川 (Edogawa),2014-01-21,02:01～03:00,0.0862,0.0731,0.0787,
江戸川 (Edogawa),2014-01-21,01:01～02:00,0.0841,0.0740,0.0789,
江戸川 (Edogawa),2014-01-21,00:01～01:00,0.0848,0.0725,0.0792,
江戸川 (Edogawa),2014-01-20,23:01～24:00,0.0847,0.0724,0.0783,
江戸川 (Edogawa),2014-01-20,22:01～23:00,0.0849,0.0729,0.0791,
江戸川 (Edogawa),2014-01-20,21:01～22:00,0.0828,0.0734,0.0780,
江戸川 (Edogawa),2014-01-20,20:01～21:00,0.0836,0.0728,0.0785,
江戸川 (Edogawa),2014-01-20,19:01～20:00,0.0849,0.0730,0.0788,
江戸川 (Edogawa),2014-01-20,18:01～19:00,0.0850,0.0735,0.0787,
江戸川 (Edogawa),2014-01-20,17:01～18:00,0.0859,0.0726,0.0788,
江戸川 (Edogawa),2014-01-20,16:01～17:00,0.0836,0.0740,0.0791,
江戸川 (Edogawa),2014-01-20,15:01～16:00,0.0856,0.0719,0.0795,
江戸川 (Edogawa),2014-01-20,14:01～15:00,0.0850,0.0745,0.0789,
江戸川 (Edogawa),2014-01-20,13:01～14:00,0.0836,0.0740,0.0797,
江戸川 (Edogawa),2014-01-20,12:01～13:00,0.0861,0.0739,0.0792,
江戸川 (Edogawa),2014-01-20,11:01～12:00,0.0856,0.0736,0.0791,
江戸川 (Edogawa),2014-01-20,10:01～11:00,0.0830,0.0738,0.0790,
江戸川 (Edogawa),2014-01-20,09:01～10:00,0.0844,0.0733,0.0778,
江戸川 (Edogawa),2014-01-20,08:01～09:00,0.0829,0.0731,0.0774,
江戸川 (Edogawa),2014-01-20,07:01～08:00,0.0837,0.0727,0.0777,
江戸川 (Edogawa),2014-01-20,06:01～07:00,0.0855,0.0733,0.0780,
江戸川 (Edogawa),2014-01-20,05:01～06:00,0.0824,0.0721,0.0779,
江戸川 (Edogawa),2014-01-20,04:01～05:00,0.0826,0.0724,0.0777,
江戸川 (Edogawa),2014-01-20,03:01～04:00,0.0828,0.0727,0.0773,
江戸川 (Edogawa),2014-01-20,02:01～03:00,0.0829,0.0720,0.0774,
江戸川 (Edogawa),2014-01-20,01:01～02:00,0.0836,0.0726,0.0776,
江戸川 (Edogawa),2014-01-20,00:01～01:00,0.0842,0.0731,0.0779,
